AirNav   Jet Aviation Boston
 
 533 users online  

0IL6 Kishwaukee Hospital Heliport
De Kalb, Illinois, USA

GOING TO DE KALB?


FAA INFORMATION EFFECTIVE 24 MAY 2018

Location

FAA Identifier: 0IL6
Lat/Long: 41-57-38.3600N / 088-43-18.3800W
41-57.639333N / 088-43.306333W
41.9606556 / -88.7217722
(estimated)
Elevation: 860 ft. / 262 m (estimated)
Variation: 03W (2010)
From city: 3 miles NE of DE KALB, IL
Time zone: UTC -5 (UTC -6 during Standard Time)
Zip code: 60115

Heliport Operations

Heliport use: Private use, MEDICAL USE.
Activation date: 02/1975
Control tower: no
ARTCC: CHICAGO CENTER
FSS: KANKAKEE FLIGHT SERVICE STATION
NOTAMs facility: FDC (NOTAM-D service not available)
Attendance: UNATNDD
Wind indicator: lighted
Segmented circle: no
Beacon: white-green-yellow (heliport)
Operates sunset to sunrise.

Heliport Communications

WX AWOS-3 at DKB (1.8 nm SE): 119.075 (815-748-2350)
WX ASOS at ARR (16 nm SE): PHONE 630-466-5622
WX AWOS-3 at RPJ (16 nm W): 125.2 (815-562-2955)

Nearby radio navigation aids

VOR radial/distance  VOR name  Freq  Var
DPAr282/17.1DUPAGE VOR/DME108.4002E
RFDr126/26.5ROCKFORD VOR/DME110.8001E
JOTr322/30.7JOLIET VOR/DME112.3002E
PLLr087/35.8POLO VOR/DME111.2003E
ORDr265/36.5CHICAGO O'HARE VOR/DME113.9002E
OBKr247/37.7NORTHBROOK VOR/DME113.0002W
JVLr152/39.7JANESVILLE VOR/DME114.3003E

Heliport Services

Runway Information

Helipad H1

Dimensions: 40 x 40 ft. / 12 x 12 m
Surface: concrete
Runway edge lights: PERI
RY H1 AND LEAD-IN LGTS.
Latitude: 41-57.639333N
Longitude: 088-43.306333W
Elevation: 860.0 ft.
Traffic pattern: leftleft

Heliport Ownership and Management from official FAA records

Ownership: Privately-owned
Owner: KISHWAUKEE HEALTH SYSTEM
P.O. BOX 707
DEKALB, IL 60115
Phone 815-756-1521
Manager: PAUL SPRINGER
P.O. BOX 707
DEKALB, IL 60115
Phone (815) 762-5126
EXTENSION 3489.

Instrument Procedures

There are no published instrument procedures at 0IL6.

Some nearby airports with instrument procedures:

KDKB - De Kalb Taylor Municipal Airport (2 nm SE)
KARR - Aurora Municipal Airport (16 nm SE)
KRPJ - Rochelle Municipal Airport-Koritz Field (16 nm W)
KDPA - DuPage Airport (21 nm E)
KRFD - Chicago/Rockford International Airport (22 nm NW)
 
Loc | Ops | Rwys | IFR | FBO | Links
Com | Nav | Svcs | Stats | Notes

AirNav Hotels Sweepstakes
 
Area around 0IL6 (Kishwaukee Hospital Heliport)
 
Road maps at: MapQuest Bing Google
 
Aerial photo
No photo
 
Sectional chart

 
Airport distance calculator
Flying to Kishwaukee Hospital Heliport? Find the distance to fly.

From to 0IL6

Sunrise and sunset
Times for 25-May-2018
 Local
(UTC-5)
 Zulu
(UTC)
Morning civil twilight04:5409:54
Sunrise05:2710:27
Sunset20:1701:17
Evening civil twilight20:5001:50

Current date and time
Zulu (UTC)  26-May-2018 04:36:03
Local (UTC-5)  25-May-2018 23:36:03
 
METAR
KDKB 
2nm SE 
260415Z AUTO 23010KT 10SM BKN080 22/19 A2982 RMK AO2 T02220188
KARR 
16nm SE 
260352Z AUTO 21009KT 9SM BKN080 OVC110 23/20 A2982 RMK AO2 RAB33E43 SLP091 P0000 T02330200
KRPJ 
16nm W 
260415Z AUTO 24009KT 10SM SCT021 SCT032 OVC060 21/20 A2983 RMK AO2 T02110198
TAF
KDPA 
21nm E 
260257Z 2603/2624 27005KT P6SM VCSH SCT070 BKN150 FM260700 20005KT P6SM FEW050 BKN150 FM261600 24009KT P6SM SCT050 SCT250
KRFD 
22nm NW 
260340Z 2604/2624 28009KT P6SM VCSH SCT050 BKN150 FM260500 22006KT P6SM SCT050 BKN150 FM261700 24009KT P6SM FEW045 SCT250
NOTAMs
Click for the latest NOTAMs
NOTAMs are issued by the DoD/FAA and will open in a separate window not controlled by AirNav.

 

 
 

Would you like to see your business listed on this page?

 If your business provides an interesting product or service to pilots, flight crews, aircraft, or users of the Kishwaukee Hospital Heliport, you should consider listing it here.  To start the listing process, click on the button below
 
Add a business
 

Other Pages about Kishwaukee Hospital Heliport

Update a link
 
Copyright © AirNav, LLC. All rights reserved. Privacy Policy  Contact